Content
SEND FEEDBACK

Daily
Averages
Monthly
Summary
United States of America

GRAFTON, ILLINOIS


Home > North America > United States > Illinois
Elevation: 400 feet     Latitude: 38 58N     Longitude: 090 26W

WEATHER
 
SELECT A DAY
Number of Records: 166,624;   Date Range: 10/8/98 - 7/29/14
 
SHARE

PRINT THIS DATA

[ ← Previous Day ]
WEATHER ALMANAC - MARCH 5, 2013
[ Next Day → ]
[ °C ]   °F
Weather ElementAverageHighLow
Temperature33.8 °F37.9 °F (2:54 am)32 °F (3:54 pm)
Dewpoint27.6 °F32 °F (2:54 am)21 °F (2:54 pm)
Humidity78.7 %93 % (6:34 am)61 % (2:54 pm)
Barometer29.96 in30.14 in (11:54 pm)29.80 in (2:54 am)
Wind Speed16.8 mph28.8 mph (2:54 pm)
Wind Gust39.1 mph (2:54 pm)
Weather ElementAverage
Visibility6 mi
Wind DirectionWNW (298.5 °)

Weather ElementTotal
Precipitation0.22 in
Heating Degree Days30.1 (Base 65)
Averaged from 46 records on March 5, 2013
WEATHER CONDITIONS BREAKOUT
WIND DIRECTION BREAKOUT
WEATHER BY HOUR - MARCH 5, 2013
[ °C ]   °F
Local TimeTemperatureDewpointHumidityBarometerVisibilityWind DirectionWind SpeedGust SpeedPrecipitationEventsConditions
2:54 AM37.9 °F32.0 °F79 %29.80 in10.0 miNNE (30°)6.9 mphOvercast
3:54 AM37.0 °F30.9 °F79 %29.83 in10.0 miNNW (330°)5.8 mphOvercast
4:40 AM37.4 °F30.2 °F75 %29.84 in10.0 miNW (320°)5.8 mphOvercast
4:54 AM37.0 °F30.9 °F79 %29.84 in10.0 miNW (320°)5.8 mphOvercast
5:54 AM35.1 °F30.9 °F85 %29.89 in5.0 miWNW (290°)10.4 mph0.01 inRainLight Rain
6:34 AM33.8 °F32.0 °F93 %29.87 in4.0 miNW (310°)13.8 mph0.02 inSnowLight Snow
6:49 AM33.8 °F32.0 °F93 %29.87 in5.0 miWNW (300°)13.8 mph0.02 inOvercast
7:20 AM33.8 °F30.2 °F87 %29.88 in2.0 miWNW (300°)12.7 mph0.01 inSnowLight Snow
7:36 AM33.8 °F30.2 °F87 %29.88 in1.8 miWNW (300°)13.8 mph0.01 inSnowLight Snow
7:47 AM33.8 °F30.2 °F87 %29.89 in2.5 miWNW (300°)16.1 mph24.2 mph0.01 inSnowLight Snow
7:54 AM34.0 °F30.9 °F89 %29.90 in3.0 miWNW (300°)13.8 mph0.01 inSnowLight Snow
8:01 AM33.8 °F30.2 °F87 %29.89 in2.0 miNW (310°)13.8 mph0.00 inSnowLight Snow
8:11 AM33.8 °F30.2 °F87 %29.89 in1.8 miNW (310°)19.6 mph26.5 mph0.00 inSnowLight Snow
8:33 AM33.8 °F30.2 °F87 %29.90 in0.8 miNW (310°)12.7 mph0.00 inSnowLight Snow
8:54 AM33.1 °F30.0 °F89 %29.92 in0.8 miNW (310°)12.7 mph24.2 mph0.01 inSnowLight Snow
9:32 AM33.8 °F30.2 °F87 %29.92 in1.0 miWNW (300°)10.4 mph0.00 inSnowLight Snow
9:40 AM33.8 °F30.2 °F87 %29.92 in0.8 miNW (310°)12.7 mph0.01 inSnowLight Snow
9:51 AM33.8 °F30.2 °F87 %29.92 in0.5 miNW (310°)16.1 mph21.9 mph0.01 inFog-SnowSnow
9:54 AM33.1 °F30.9 °F92 %29.93 in0.2 miNW (310°)16.1 mph21.9 mph0.01 inFog-SnowHeavy Snow
10:34 AM33.8 °F30.2 °F87 %29.93 in0.8 miNW (310°)12.7 mph21.9 mph0.01 inSnowLight Snow
10:52 AM33.8 °F30.2 °F87 %29.92 in1.2 miNW (310°)17.3 mph0.02 inSnowLight Snow
10:54 AM34.0 °F30.9 °F89 %29.93 in1.5 miNW (310°)16.1 mph0.02 inSnowLight Snow
10:59 AM33.8 °F30.2 °F87 %29.93 in3.0 miNW (310°)18.4 mph23.0 mph0.01 inSnowLight Snow
11:54 AM34.0 °F28.0 °F79 %29.95 in10.0 miNW (310°)18.4 mph27.6 mph0.03 inOvercast
12:54 PM34.0 °F27.0 °F75 %29.96 in10.0 miWNW (300°)21.9 mph31.1 mphOvercast
1:23 PM35.6 °F26.6 °F70 %29.95 in10.0 miWNW (300°)23.0 mph34.5 mphOvercast
1:54 PM35.1 °F24.1 °F64 %29.97 in10.0 miWNW (300°)23.0 mph32.2 mphOvercast
2:54 PM33.1 °F21.0 °F61 %29.99 in10.0 miWNW (290°)28.8 mph39.1 mphOvercast
3:54 PM32.0 °F21.9 °F66 %30.01 in10.0 miWNW (290°)23.0 mph34.5 mphOvercast
4:54 PM32.0 °F24.1 °F73 %30.03 in4.0 miWNW (290°)20.7 mph28.8 mph0.00 inSnowLight Snow
4:58 PM32.0 °F24.8 °F75 %30.02 in1.8 miWNW (290°)23.0 mph31.1 mph0.00 inSnowLight Snow
5:09 PM32.0 °F24.8 °F75 %30.01 in2.5 miWNW (290°)18.4 mph29.9 mph0.00 inSnowLight Snow
5:16 PM32.0 °F24.8 °F75 %30.01 in5.0 miWest (280°)18.4 mph27.6 mph0.00 inSnowLight Snow
5:32 PM32.0 °F26.6 °F80 %30.01 in4.0 miWest (280°)21.9 mph27.6 mph0.00 inSnowLight Snow
5:54 PM32.0 °F26.1 °F79 %30.03 in10.0 miWNW (290°)20.7 mph28.8 mph0.00 inOvercast
6:22 PM32.0 °F26.6 °F80 %30.03 in10.0 miWNW (290°)18.4 mph29.9 mphOvercast
6:54 PM33.1 °F26.1 °F75 %30.04 in10.0 miWNW (290°)18.4 mph31.1 mphOvercast
7:54 PM33.1 °F24.1 °F70 %30.06 in10.0 miNW (310°)19.6 mph26.5 mph0.00 inOvercast
8:06 PM33.8 °F24.8 °F70 %30.06 in10.0 miNW (310°)23.0 mph29.9 mphOvercast
8:54 PM34.0 °F24.1 °F67 %30.08 in10.0 miNW (310°)19.6 mph28.8 mphOvercast
9:11 PM33.8 °F24.8 °F70 %30.07 in10.0 miWNW (300°)13.8 mph23.0 mphOvercast
9:20 PM33.8 °F24.8 °F70 %30.08 in9.0 miNW (310°)19.6 mph34.5 mph0.00 inSnowLight Snow
9:50 PM33.8 °F23.0 °F65 %30.10 in10.0 miNW (320°)17.3 mph33.4 mph0.00 inOvercast
9:54 PM33.1 °F23.0 °F66 %30.11 in10.0 miNNW (330°)21.9 mph28.8 mph0.00 inOvercast
10:54 PM33.1 °F21.9 °F64 %30.13 in10.0 miNW (320°)21.9 mph31.1 mphOvercast
11:54 PM32.0 °F21.0 °F64 %30.14 in10.0 miNW (320°)21.9 mph29.9 mphOvercast
Hourly data recorded from KSET, located miles away from Grafton, Illinois







STORIES FROM OUR PARTNERS